Key West NAF, FL

11:32 PM EDT on March 22, 2017 (GMT -0400)
Key West Naval Air Station

Weather History for KNQX - March, 2014

Change the Weather History Date:

Monday, March 10, 2014

  Actual Average Record
Temperature  
Mean Temperature 72 °F -  
Max Temperature 78 °F 77 °F 84 °F (1992)
Min Temperature 66 °F 67 °F 58 °F (1965)
Cooling Degree Days 7    
Growing Degree Days 22 (Base 50)    
Moisture  
Dew Point 63 °F    
Average Humidity 75    
Maximum Humidity 90    
Minimum Humidity 62    
Precipitation  
Precipitation 0.00 in - - ()
Sea Level Pressure  
Sea Level Pressure 30.07 in    
Wind  
Wind Speed 4 mph (NNE)    
Max Wind Speed 12 mph    
Max Gust Speed -    
Visibility 10 miles    
Events      
Averages and records for this station are not official NWS values.
T = Trace of Precipitation, MM = Missing Value Source: NWS Daily Summary

Daily Weather History Graph

Daily Weather History Graph

Search for Another Location

Airport or City:

Trip Planner

Search our weather history database for the weather conditions in past years. The results will help you decide how hot, cold, wet, or windy it might be!

Date:

Astronomy

Mar. 10, 2014 Rise Set
Actual Time 7:40 AM EDT 7:33 PM EDT
Civil Twilight 7:18 AM EDT 7:56 PM EDT
Nautical Twilight 6:51 AM EDT 8:22 PM EDT
Astronomical Twilight 6:25 AM EDT 8:49 PM EDT
Moon 2:40 PM EDT (3/10) 3:26 AM EDT (3/10)
Length of Visible Light 12h 38m
Length of Day
11h 52m
Waxing Gibbous, 70% of the Moon is Illuminated
Mar 10
Waxing Gibbous
Mar 16
Full
Mar 23
Last Quarter
Mar 30
New
Apr 7
First Quarter

Hourly Weather History & Observations

Time (EDT) Temp. Dew Point Humidity Pressure Visibility Wind Dir Wind Speed Gust Speed Precip Events Conditions
12:53 AM 69.1 °F 64.0 °F 84% 30.13 in 10.0 mi NE 3.5 mph - N/A   Scattered Clouds
1:53 AM 69.1 °F 64.0 °F 84% 30.12 in 10.0 mi NE 4.6 mph - N/A   Mostly Cloudy
2:53 AM 69.1 °F 63.0 °F 81% 30.10 in 10.0 mi North 5.8 mph - N/A   Scattered Clouds
3:53 AM 69.1 °F 64.0 °F 84% 30.08 in 10.0 mi NNE 3.5 mph - N/A   Partly Cloudy
4:53 AM 68.0 °F 64.0 °F 87% 30.07 in 10.0 mi North 4.6 mph - N/A   Mostly Cloudy
5:53 AM 69.1 °F 64.0 °F 84% 30.08 in 10.0 mi North 3.5 mph - N/A   Scattered Clouds
6:03 AM 69.1 °F 63.0 °F 81% 30.08 in 10.0 mi North 3.5 mph - N/A   Scattered Clouds
6:53 AM 66.9 °F 64.0 °F 90% 30.08 in 10.0 mi Calm Calm - N/A   Partly Cloudy
7:53 AM 66.9 °F 63.0 °F 87% 30.08 in 10.0 mi ENE 3.5 mph - N/A   Scattered Clouds
8:53 AM 73.0 °F 64.0 °F 73% 30.10 in 10.0 mi North 3.5 mph - N/A   Scattered Clouds
9:53 AM 75.0 °F 64.9 °F 71% 30.11 in 10.0 mi NNE 8.1 mph - N/A   Scattered Clouds
10:53 AM 75.9 °F 64.9 °F 69% 30.11 in 10.0 mi NNE 11.5 mph - N/A   Scattered Clouds
11:53 AM 78.1 °F 64.9 °F 64% 30.12 in 10.0 mi NE 8.1 mph - N/A   Scattered Clouds
12:53 PM 75.0 °F 64.0 °F 69% 30.10 in 10.0 mi NNE 6.9 mph - N/A   Scattered Clouds
1:53 PM 75.9 °F 64.0 °F 67% 30.09 in 10.0 mi NNE 8.1 mph - N/A   Scattered Clouds
2:53 PM 77.0 °F 64.0 °F 64% 30.06 in 10.0 mi North 8.1 mph - N/A   Mostly Cloudy
3:53 PM 75.0 °F 64.0 °F 69% 30.04 in 10.0 mi North 10.4 mph - N/A   Mostly Cloudy
4:53 PM 75.9 °F 64.0 °F 67% 30.02 in 10.0 mi North 6.9 mph - N/A   Scattered Clouds
5:53 PM 75.9 °F 62.1 °F 62% 30.01 in 10.0 mi SE 4.6 mph - N/A   Scattered Clouds
6:53 PM 75.0 °F 62.1 °F 64% 30.01 in 10.0 mi SE 4.6 mph - N/A   Clear
7:53 PM 71.1 °F 62.1 °F 73% 30.00 in 10.0 mi ESE 4.6 mph - N/A   Clear
8:53 PM 71.1 °F 62.1 °F 73% 30.03 in 10.0 mi Calm Calm - N/A   Clear
9:53 PM 70.0 °F 63.0 °F 78% 30.04 in 10.0 mi Calm Calm - N/A   Clear
10:18 PM 71.1 °F 62.1 °F 73% 30.05 in 10.0 mi Calm Calm - N/A   Partly Cloudy
10:53 PM 70.0 °F 62.1 °F 76% 30.05 in 10.0 mi Calm Calm - N/A   Clear
11:53 PM 69.1 °F 62.1 °F 78% 30.05 in 10.0 mi Calm Calm - N/A   Clear